Location: Wiesbaden
(50.0830°N, 8.2500°E)
Time: 19:39:33
(UTC+02:00)

ISS - Pass Details

Date: 17 July 2019
Orbit: 409 x 418 km, 51.6° (Epoch: 20 July)

Event Time Altitude Azimuth Distance (km) Brightness Sun altitude
Rises 22:15:24 0° 205° (SSW) 2,343 -0.2 -6.5°
Reaches altitude 10° 22:17:55 10° 185° (S) 1,483 -1.3 -6.7°
Maximum altitude 22:20:15 18° 141° (SE) 1,097 -2.3 -7.0°
Drops below altitude 10° 22:22:35 10° 96° (E) 1,486 -1.4 -7.3°
Sets 22:25:07 0° 77° (ENE) 2,350 -0.3 -7.6°
